TimeCDT,TemperatureF,Dew PointF,Humidity,Sea Level PressureIn,VisibilityMPH,Wind Direction,Wind SpeedMPH,Gust SpeedMPH,PrecipitationIn,Events,Conditions,WindDirDegrees,DateUTC
12:53 AM,55.0,37.9,53,29.79,10.0,South,6.9,-,N/A,,Clear,170,2012-10-03 05:53:00
1:53 AM,55.0,39.0,55,29.79,10.0,Calm,Calm,-,N/A,,Clear,0,2012-10-03 06:53:00
2:53 AM,48.9,39.0,69,29.79,10.0,SE,3.5,-,N/A,,Clear,130,2012-10-03 07:53:00
3:53 AM,50.0,39.9,68,29.78,10.0,SE,4.6,-,N/A,,Clear,130,2012-10-03 08:53:00
4:53 AM,48.0,39.0,71,29.78,10.0,SE,4.6,-,N/A,,Clear,130,2012-10-03 09:53:00
5:53 AM,48.0,39.9,74,29.77,10.0,SE,5.8,-,N/A,,Clear,140,2012-10-03 10:53:00
6:53 AM,48.0,39.9,74,29.77,10.0,SSE,5.8,-,N/A,,Clear,160,2012-10-03 11:53:00
7:53 AM,46.9,39.9,77,29.79,10.0,South,3.5,-,N/A,,Clear,190,2012-10-03 12:53:00
8:53 AM,50.0,42.1,74,29.77,10.0,SSE,5.8,-,N/A,,Clear,150,2012-10-03 13:53:00
10:53 AM,66.0,45.0,47,29.76,10.0,SSW,5.8,-,N/A,,Clear,210,2012-10-03 15:53:00
11:53 AM,75.9,43.0,31,29.73,10.0,South,5.8,-,N/A,,Clear,170,2012-10-03 16:53:00
12:53 PM,82.9,39.9,22,29.70,10.0,Variable,3.5,-,N/A,,Clear,0,2012-10-03 17:53:00
1:53 PM,88.0,33.1,14,29.67,10.0,Calm,Calm,-,N/A,,Clear,0,2012-10-03 18:53:00
2:53 PM,91.0,32.0,12,29.65,10.0,Variable,6.9,-,N/A,,Clear,0,2012-10-03 19:53:00
3:53 PM,91.9,30.9,11,29.63,10.0,ESE,8.1,-,N/A,,Clear,110,2012-10-03 20:53:00
4:41 PM,91.4,30.2,11,29.68,10.0,WNW,8.1,-,N/A,,Clear,300,2012-10-03 21:41:00
4:53 PM,91.0,28.9,11,29.62,10.0,WNW,5.8,-,N/A,,Clear,300,2012-10-03 21:53:00
5:53 PM,90.0,26.1,10,29.64,10.0,NW,17.3,41.4,N/A,,Clear,310,2012-10-03 22:53:00
6:53 PM,82.9,32.0,16,29.70,6.0,North,35.7,47.2,N/A,,Haze,360,2012-10-03 23:53:00
7:06 PM,80.6,33.8,18,29.79,6.0,North,28.8,40.3,N/A,,Haze,350,2012-10-04 00:06:00
7:53 PM,71.6,37.4,29,29.83,8.0,North,33.4,42.6,N/A,,Clear,360,2012-10-04 00:53:00
8:53 PM,64.0,37.0,37,29.91,7.0,North,25.3,35.7,N/A,,Clear,360,2012-10-04 01:53:00
9:53 PM,57.9,37.0,46,30.01,10.0,North,24.2,-,N/A,,Clear,350,2012-10-04 02:53:00
10:53 PM,53.1,36.0,52,30.09,10.0,North,24.2,32.2,N/A,,Clear,350,2012-10-04 03:53:00
11:53 PM,50.0,36.0,59,30.15,10.0,North,19.6,38.0,N/A,,Overcast,350,2012-10-04 04:53:00